Location: Houston
(29.7630°N, 95.3630°W)
Time: 02:12:15
(UTC-05:00)

Amateur Radio Satellites - All Passes

Search period start: 05 May 2015 01:42
Search period end: 06 May 2015 01:42
Location: Houston, 29.7630°N, 95.3630°W

Satellite Date Start Highest point End Downlink Frequencies (MHz)
Time Altitude Azimuth
POPSAT HIP 1 05 May 01:43:53 01:45:06 11° 290° (WNW) 01:46:02 437.405
Oscar 19 05 May 01:45:04 01:48:13 17° 93° (E) 01:51:36 437.125/150
SRMSAT 05 May 01:59:43 02:04:53 30° 186° (S) 02:09:59 437.500
RS-15 05 May 02:06:05 02:09:00 10° 258° (WSW) 02:10:18 29.354- 29.394
SPROUT 05 May 02:06:25 02:08:35 13° 268° (W) 02:10:31 437.525
GONETS M04 05 May 02:22:32 02:28:53 23° 71° (ENE) 02:35:37
CUSAT 1 05 May 02:34:01 02:40:04 23° 69° (ENE) 02:46:14 437.405
Gurwin Techsat 1B 05 May 02:35:18 02:37:24 13° 91° (E) 02:39:52 435.225
DANDE 05 May 02:39:56 02:45:40 21° 69° (ENE) 02:51:49 436.750
ITAMSAT 1 05 May 02:42:44 02:46:05 18° 94° (E) 02:49:39 435.822/435.867
ITUPSAT 1 05 May 02:42:45 02:47:27 57° 260° (W) 02:52:09 437.325
AIST 2 05 May 02:46:35 02:48:24 12° 310° (NW) 02:50:01 435.215
BEESAT 05 May 03:07:23 03:11:33 29° 263° (W) 03:15:40 436.000
SWISSCUBE 05 May 03:12:05 03:15:57 24° 264° (W) 03:19:43 437.505
JUGNU 05 May 03:22:09 03:24:08 11° 199° (SSW) 03:25:56 437.505
Oscar 19 05 May 03:22:54 03:27:47 42° 287° (WNW) 03:32:37 437.125/150
KKS-1 05 May 03:25:43 03:30:07 70° 77° (ENE) 03:34:34 437.445
SRMSAT 05 May 03:49:25 03:53:35 19° 195° (SSW) 03:57:41 437.500
STARS 05 May 03:54:42 03:59:06 86° 262° (W) 04:03:33 437.465
HORYU 2 05 May 04:11:08 04:14:28 21° 95° (E) 04:17:54 437.375
Gurwin Techsat 1B 05 May 04:12:35 04:17:47 56° 286° (WNW) 04:22:57 435.225
CUSAT 1 05 May 04:15:12 04:23:29 66° 266° (W) 04:31:06 437.405
GONETS M04 05 May 04:17:43 04:26:23 61° 268° (W) 04:34:55
ITAMSAT 1 05 May 04:20:55 04:25:46 40° 287° (WNW) 04:30:34 435.822/435.867
DANDE 05 May 04:21:12 04:29:45 76° 265° (W) 04:37:56 436.750
AO-7 05 May 04:35:31 04:42:50 35° 98° (E) 04:50:19 29.400- 29.500
MOZHAYETS 4 05 May 05:08:35 05:13:07 59° 76° (ENE) 05:17:41
JAS-2 05 May 05:12:32 05:18:07 70° 101° (E) 05:23:19 435.910
PCSat 05 May 05:18:54 05:22:14 17° 106° (ESE) 05:25:50 145.827
Cosmos 2499 05 May 05:28:03 05:35:20 67° 82° (E) 05:42:20 435.465 / 435.565
HORYU 2 05 May 05:47:22 05:51:05 25° 288° (WNW) 05:54:40 437.375
DANDE 05 May 06:09:02 06:12:03 12° 276° (W) 06:14:13 436.750
O/OREOS (USA 219) 05 May 06:10:38 06:12:42 13° 60° (ENE) 06:15:00 437.305
M-CUBED/EXP-1 PRIME 05 May 06:25:40 06:29:48 30° 69° (ENE) 06:33:58 437.505
AO-7 05 May 06:27:58 06:35:42 43° 293° (WNW) 06:43:20 29.400- 29.500
PRISM 05 May 06:28:26 06:30:31 14° 71° (ENE) 06:32:47 437.425
STRAND 1 05 May 06:46:16 06:50:03 22° 71° (ENE) 06:53:59 437.568
CUTE-I 05 May 06:50:01 06:54:18 25° 96° (E) 06:58:43 437.470
AUBIESAT-1 05 May 06:57:12 07:01:55 60° 72° (ENE) 07:06:34 437.475
PCSat 05 May 07:00:10 07:05:21 45° 298° (WNW) 07:10:32 145.827
JAS-2 05 May 07:01:25 07:02:34 10° 296° (WNW) 07:03:18 435.910
Cubesat XI-IV 05 May 07:02:32 07:07:20 34° 98° (E) 07:12:12 437.490
CUBESAT XI-V 05 May 07:14:56 07:19:33 76° 259° (WSW) 07:24:10 437.345
Cosmos 2499 05 May 07:23:54 07:27:47 15° 275° (W) 07:31:05 435.465 / 435.565
O/OREOS (USA 219) 05 May 07:48:10 07:52:23 41° 255° (WSW) 07:56:33 437.305
M-CUBED/EXP-1 PRIME 05 May 08:00:43 08:04:36 23° 260° (W) 08:08:19 437.505
PRISM 05 May 08:01:58 08:05:44 33° 262° (W) 08:09:27 437.425
Cosmos 2491 05 May 08:04:00 08:06:57 12° 65° (ENE) 08:10:46 435.465 / 435.565
ISS 05 May 08:06:32 08:09:45 75° 315° (NW) 08:12:59 145.825
STRAND 1 05 May 08:24:32 08:29:05 32° 263° (W) 08:33:35 437.568
CUTE-I 05 May 08:29:44 08:34:22 30° 288° (WNW) 08:38:55 437.470
GOMX 1 05 May 08:30:55 08:32:54 12° 90° (E) 08:35:17 467.674
AUBIESAT-1 05 May 08:35:34 08:36:59 11° 264° (W) 08:38:03 437.475
Cubesat XI-IV 05 May 08:43:08 08:47:16 22° 290° (WNW) 08:51:14 437.490
YUBILEINY 05 May 08:57:55 09:02:18 16° 84° (E) 09:07:22 435.215
BEESAT 2 05 May 09:06:15 09:06:39 10° 49° (NE) 09:07:17 435.950
SO-50 05 May 09:07:47 09:12:17 62° 115° (ESE) 09:16:58 436.795
CANX-2 05 May 09:09:04 09:11:58 18° 94° (E) 09:15:00 2200.000
CUTE 1.7 + AOD 2 05 May 09:16:21 09:19:27 20° 95° (E) 09:22:39 437.475
CINEMA 3 05 May 09:18:58 09:19:51 11° 89° (E) 09:21:08 145.822/145.860
COMPASS 1 05 May 09:34:56 09:38:07 22° 95° (E) 09:41:23 437.405
BRITE-PL 05 May 09:35:29 09:41:03 84° 283° (WNW) 09:46:46 437.365/2234.400
DOVE 4 05 May 09:50:31 09:55:46 59° 100° (E) 10:00:58 437.250
Cosmos 2491 05 May 09:56:26 10:05:20 85° 85° (E) 10:14:10 435.465 / 435.565
GOMX 1 05 May 10:06:02 10:11:26 64° 284° (WNW) 10:16:51 467.674
AAUSAT CUBESAT 2 05 May 10:07:37 10:11:39 49° 99° (E) 10:15:40 437.432
HO-68 05 May 10:08:18 10:15:31 84° 104° (ESE) 10:22:41 435.675
DELFI C3 05 May 10:09:21 10:11:22 14° 93° (E) 10:13:34 145.870
SEEDS 05 May 10:16:47 10:21:00 79° 282° (WNW) 10:25:10 437.485
BEESAT 3 05 May 10:25:30 10:29:33 70° 245° (WSW) 10:33:31 437.485
ANTELSAT 05 May 10:32:58 10:36:38 25° 72° (ENE) 10:40:27 437.575/2403.000
QB50P2 05 May 10:37:16 10:37:45 10° 69° (ENE) 10:38:32 145.880/145.840
BEESAT 2 05 May 10:41:09 10:45:10 55° 245° (WSW) 10:49:05 435.950
CANX-2 05 May 10:44:21 10:47:54 25° 287° (WNW) 10:51:20 2200.000
NANOSAT C BR1 05 May 10:46:05 10:48:00 13° 70° (ENE) 10:50:09 145.865
UKube-1 05 May 10:48:01 10:50:30 15° 94° (E) 10:53:11 .
YUBILEINY 05 May 10:49:30 10:58:21 79° 277° (W) 11:07:11 435.215
SO-50 05 May 10:51:12 10:53:20 12° 312° (NW) 10:55:15 436.795
CUTE 1.7 + AOD 2 05 May 10:51:55 10:55:19 23° 287° (WNW) 10:58:36 437.475
CINEMA 3 05 May 10:52:32 10:57:31 61° 283° (WNW) 11:02:21 145.822/145.860
POPSAT HIP 1 05 May 10:53:38 10:56:16 17° 71° (ENE) 10:59:05 437.405
FUNcube-1 05 May 10:59:15 11:03:37 46° 99° (E) 11:07:54 145.935
Oscar 11 05 May 11:02:54 11:07:14 77° 283° (WNW) 11:11:31 145.826/435.025
AIST 1 05 May 11:07:29 11:11:33 42° 81° (E) 11:15:41
COMPASS 1 05 May 11:10:31 11:13:42 21° 287° (WNW) 11:16:46 437.405
AIST 2 05 May 11:11:01 11:15:15 82° 65° (ENE) 11:19:21 435.215
DUCHIFAT 1 05 May 11:14:41 11:18:19 30° 74° (ENE) 11:22:02 145.980
CUBEBUG 2 05 May 11:15:42 11:20:25 65° 284° (WNW) 11:24:58 437.445
TIGRISAT 05 May 11:16:44 11:21:18 79° 77° (ENE) 11:26:00 435.000
VERMONT LUNAR 05 May 11:17:28 11:20:30 36° 145° (SE) 11:23:35 437.305
UWE-3 05 May 11:18:48 11:23:27 75° 283° (WNW) 11:27:58 435.000/436.395/437.385
UNISAT 6 05 May 11:26:03 11:30:39 78° 260° (W) 11:35:20 437.425
POLYITAN 1 05 May 11:26:58 11:31:00 45° 75° (ENE) 11:35:06 437.675
ZACube-1 05 May 11:29:05 11:33:38 72° 283° (WNW) 11:38:03 437.345
DOVE 4 05 May 11:30:18 11:33:03 14° 291° (WNW) 11:35:30 437.250
HUMSAT D 05 May 11:31:56 11:36:07 51° 99° (E) 11:40:14 437.325/437.525
QB50P1 05 May 11:38:56 11:43:05 65° 77° (ENE) 11:47:18 145.935-145.965
50 SAT 05 May 11:40:44 11:44:23 35° 98° (E) 11:48:02 437.505
DELFI C3 05 May 11:43:03 11:46:35 29° 286° (WNW) 11:50:03 145.870
CUBEBUG 1 05 May 11:44:03 11:46:40 16° 94° (E) 11:49:29 437.445
RS-15 05 May 11:51:55 12:00:37 30° 107° (ESE) 12:09:48 29.354- 29.394
BUGSAT 1 05 May 11:53:48 11:57:46 64° 77° (ENE) 12:01:46 437.445
DX 1 05 May 11:55:04 11:59:25 67° 284° (WNW) 12:03:46 434.975-435.025
Cosmos 2491 05 May 11:56:53 12:01:19 14° 277° (W) 12:04:58 435.465 / 435.565
HO-68 05 May 11:58:47 12:02:32 14° 297° (WNW) 12:05:48 435.675
PHONESAT 2.4 05 May 12:00:33 12:03:25 24° 142° (SE) 12:06:20 2401.200-2431.200
QB50P2 05 May 12:09:11 12:13:16 48° 261° (W) 12:17:23 145.880/145.840
VELOX 1 05 May 12:09:11 12:13:40 76° 102° (ESE) 12:18:07 145.980
ANTELSAT 05 May 12:09:34 12:13:21 24° 265° (W) 12:17:03 437.575/2403.000
ESTCUBE 1 05 May 12:12:21 12:16:36 42° 99° (E) 12:20:52 437.505/2401.250
Cosmos 2504 05 May 12:16:43 12:24:28 37° 89° (E) 12:32:14 435.465 / 435.565
NANOSAT C BR1 05 May 12:19:39 12:23:33 36° 262° (W) 12:27:28 145.865
UKube-1 05 May 12:22:51 12:26:44 32° 287° (WNW) 12:30:35 .
SPROUT 05 May 12:23:59 12:24:30 10° 91° (E) 12:25:20 437.525
POPSAT HIP 1 05 May 12:28:16 12:31:58 28° 263° (W) 12:35:37 437.405
AISAT 05 May 12:31:33 12:35:57 54° 284° (WNW) 12:40:19 437.250
FUNcube-1 05 May 12:37:38 12:39:34 12° 291° (WNW) 12:41:12 145.935
TISAT 1 05 May 12:45:24 12:47:45 15° 93° (E) 12:50:19 437.305
AIST 1 05 May 12:48:16 12:48:53 10° 271° (W) 12:49:11
DUCHIFAT 1 05 May 12:51:36 12:54:14 16° 267° (W) 12:56:39 145.980
YUBILEINY 05 May 12:54:19 12:56:49 11° 296° (WNW) 12:58:24 435.215
VERMONT LUNAR 05 May 12:54:57 12:57:55 30° 338° (NNW) 13:00:55 437.305
Oscar 19 05 May 12:57:05 12:59:29 14° 68° (ENE) 13:02:11 437.125/150
POLYITAN 1 05 May 13:06:50 13:07:13 10° 269° (W) 13:07:16 437.675
50 SAT 05 May 13:17:14 13:18:53 12° 289° (WNW) 13:20:18 437.505
CUBEBUG 1 05 May 13:19:10 13:23:07 32° 286° (WNW) 13:27:01 437.445
PHONESAT 2.4 05 May 13:38:06 13:41:29 45° 335° (NNW) 13:44:54 2401.200-2431.200
SWISSCUBE 05 May 13:43:23 13:43:51 10° 91° (E) 13:44:42 437.505
ESTCUBE 1 05 May 13:50:54 13:53:09 13° 290° (WNW) 13:55:10 437.505/2401.250
Gurwin Techsat 1B 05 May 13:51:27 13:53:13 12° 67° (ENE) 13:55:19 435.225
ITAMSAT 1 05 May 13:55:44 13:58:33 15° 69° (ENE) 14:01:37 435.822/435.867
SPROUT 05 May 13:56:42 14:00:53 47° 285° (WNW) 14:05:02 437.525
RS-15 05 May 14:01:45 14:12:27 58° 302° (WNW) 14:23:17 29.354- 29.394
Cosmos 2504 05 May 14:09:35 14:17:49 40° 283° (WNW) 14:25:43 435.465 / 435.565
TISAT 1 05 May 14:19:48 14:23:38 32° 286° (WNW) 14:27:25 437.305
Oscar 19 05 May 14:33:24 14:38:27 54° 260° (W) 14:43:31 437.125/150
VERMONT LUNAR 05 May 14:34:12 14:35:59 14° 355° (N) 14:37:45 437.305
ITUPSAT 1 05 May 14:49:21 14:54:04 60° 101° (E) 14:58:46 437.325
BEESAT 05 May 15:12:58 15:17:43 70° 283° (WNW) 15:22:26 436.000
GONETS M04 05 May 15:15:31 15:22:49 32° 88° (E) 15:30:25
SWISSCUBE 05 May 15:17:27 15:22:06 56° 285° (WNW) 15:26:45 437.505
PHONESAT 2.4 05 May 15:17:55 15:20:16 16° 351° (N) 15:22:36 2401.200-2431.200
JAS-2 05 May 15:17:56 15:23:04 21° 68° (ENE) 15:28:21 435.910
KKS-1 05 May 15:23:37 15:27:04 22° 95° (E) 15:30:38 437.445
Gurwin Techsat 1B 05 May 15:27:27 15:32:43 65° 259° (WSW) 15:38:00 435.225
AO-7 05 May 15:28:42 15:35:17 28° 64° (ENE) 15:42:07 29.400- 29.500
ITAMSAT 1 05 May 15:32:43 15:37:42 48° 260° (W) 15:42:42 435.822/435.867
CUSAT 1 05 May 15:35:59 15:38:42 17° 84° (E) 15:42:08 437.405
DANDE 05 May 15:47:01 15:48:59 14° 83° (E) 15:51:29 436.750
STARS 05 May 15:50:58 15:54:46 28° 97° (E) 15:58:37 437.465
PCSat 05 May 15:54:03 15:59:05 39° 61° (ENE) 16:04:09 145.827
VERMONT LUNAR 05 May 16:12:04 16:14:15 16° 11° (NNE) 16:16:27 437.305
ISS 05 May 16:14:34 16:17:49 80° 48° (NE) 16:21:03 145.825
RS-15 05 May 16:22:49 16:28:07 14° 329° (NNW) 16:32:48 29.354- 29.394
ITUPSAT 1 05 May 16:30:27 16:31:31 10° 292° (WNW) 16:32:16 437.325
HORYU 2 05 May 16:38:46 16:43:11 58° 259° (W) 16:47:38 437.375
PHONESAT 2.4 05 May 16:57:06 16:59:21 16° 8° (N) 17:01:38 2401.200-2431.200
JAS-2 05 May 16:59:51 17:07:40 68° 259° (W) 17:15:02 435.910
KKS-1 05 May 16:59:59 17:03:39 24° 288° (WNW) 17:07:14 437.445
MOZHAYETS 4 05 May 17:10:34 17:14:03 22° 95° (E) 17:17:39
GONETS M04 05 May 17:11:10 17:19:27 44° 282° (WNW) 17:27:42
CUSAT 1 05 May 17:17:00 17:20:54 32° 288° (WNW) 17:25:52 437.405
AO-7 05 May 17:19:42 17:27:44 53° 258° (WSW) 17:35:45 29.400- 29.500
STARS 05 May 17:27:49 17:31:03 19° 289° (WNW) 17:34:08 437.465
DANDE 05 May 17:28:00 17:31:36 31° 288° (WNW) 17:36:15 436.750
PCSat 05 May 17:38:18 17:42:16 20° 253° (WSW) 17:46:01 145.827
SO-50 05 May 17:46:44 17:49:05 14° 49° (NE) 17:51:40 436.795
VERMONT LUNAR 05 May 17:48:50 17:52:07 53° 26° (NNE) 17:55:25 437.305
Cosmos 2499 05 May 17:55:05 18:03:49 67° 93° (E) 18:12:14 435.465 / 435.565
CUTE-I 05 May 18:06:23 18:10:27 24° 70° (ENE) 18:14:39 437.470
Cubesat XI-IV 05 May 18:18:52 18:23:29 32° 72° (ENE) 18:28:11 437.490
PHONESAT 2.4 05 May 18:34:47 18:38:10 40° 24° (NNE) 18:41:34 2401.200-2431.200
MOZHAYETS 4 05 May 18:47:30 18:51:14 25° 287° (WNW) 18:54:53
STRAND 1 05 May 19:04:23 19:05:58 12° 91° (E) 19:07:55 437.568
CUBESAT XI-V 05 May 19:17:47 19:22:10 42° 98° (E) 19:26:36 437.345
SO-50 05 May 19:25:14 19:30:07 62° 245° (WSW) 19:34:53 436.795
VERMONT LUNAR 05 May 19:26:54 19:29:21 18° 219° (SW) 19:31:44 437.305
CUTE-I 05 May 19:45:37 19:50:23 32° 263° (W) 19:55:04 437.470
M-CUBED/EXP-1 PRIME 05 May 19:48:08 19:51:41 49° 104° (ESE) 19:55:00 437.505
PRISM 05 May 19:49:54 19:53:53 51° 100° (E) 19:57:54 437.425
JUGNU 05 May 19:51:01 19:54:52 18° 164° (SSE) 19:58:47 437.505
Cosmos 2499 05 May 19:51:09 19:57:37 21° 289° (WNW) 20:03:24 435.465 / 435.565
Cubesat XI-IV 05 May 19:59:21 20:03:37 23° 265° (W) 20:07:44 437.490
PHONESAT 2.4 05 May 20:13:10 20:16:19 29° 217° (SW) 20:19:27 2401.200-2431.200
O/OREOS (USA 219) 05 May 20:14:54 20:19:15 45° 105° (ESE) 20:23:36 437.305
AUBIESAT-1 05 May 20:19:39 20:23:15 61° 288° (WNW) 20:26:36 437.475
SRMSAT 05 May 20:24:56 20:25:50 10° 160° (SSE) 20:26:55 437.500
HO-68 05 May 20:30:42 20:36:55 34° 68° (ENE) 20:43:18 435.675
STRAND 1 05 May 20:40:33 20:45:35 57° 285° (WNW) 20:50:35 437.568
BRITE-PL 05 May 20:41:08 20:45:14 54° 76° (ENE) 20:49:36 437.365/2234.400
DOVE 4 05 May 20:50:57 20:54:36 27° 72° (ENE) 20:58:32 437.250
AAUSAT CUBESAT 2 05 May 20:53:50 20:56:22 16° 72° (ENE) 20:59:04 437.432
CUBESAT XI-V 05 May 20:56:48 20:59:18 14° 290° (WNW) 21:01:34 437.345
Cosmos 2491 05 May 20:57:02 21:02:11 18° 84° (E) 21:07:55 435.465 / 435.565
RS-15 05 May 20:59:00 21:07:25 23° 42° (NE) 21:16:37 29.354- 29.394
SEEDS 05 May 21:03:04 21:06:50 32° 74° (ENE) 21:10:40 437.485
YUBILEINY 05 May 21:07:48 21:15:43 39° 77° (ENE) 21:23:45 435.215
GOMX 1 05 May 21:08:29 21:12:45 71° 77° (ENE) 21:17:20 467.674
CANX-2 05 May 21:30:18 21:34:37 79° 258° (WSW) 21:38:56 2200.000
CUTE 1.7 + AOD 2 05 May 21:37:41 21:41:58 72° 259° (W) 21:46:17 437.475
JUGNU 05 May 21:38:21 21:43:24 29° 173° (S) 21:48:29 437.505
CINEMA 3 05 May 21:48:00 21:52:23 61° 76° (ENE) 21:57:02 145.822/145.860
FUNcube-1 05 May 21:50:02 21:52:59 18° 71° (ENE) 21:56:09 145.935
Oscar 11 05 May 21:51:44 21:55:44 37° 74° (ENE) 21:59:46 145.826/435.025
COMPASS 1 05 May 21:54:34 21:58:47 68° 259° (W) 22:03:02 437.405
O/OREOS (USA 219) 05 May 21:56:45 21:58:57 13° 300° (WNW) 22:00:54 437.305
CUBEBUG 2 05 May 22:07:39 22:11:57 50° 76° (ENE) 22:16:27 437.445
UWE-3 05 May 22:09:47 22:13:57 41° 75° (ENE) 22:18:18 435.000/436.395/437.385
SRMSAT 05 May 22:09:59 22:14:31 22° 168° (SSE) 22:19:07 437.500
HO-68 05 May 22:18:01 22:24:34 36° 262° (W) 22:31:01 435.675
ZACube-1 05 May 22:18:54 22:23:02 41° 75° (ENE) 22:27:19 437.345
HUMSAT D 05 May 22:18:55 22:21:40 18° 72° (ENE) 22:24:37 437.325/437.525
DELFI C3 05 May 22:23:52 22:27:54 69° 77° (ENE) 22:31:57 145.870
AAUSAT CUBESAT 2 05 May 22:28:03 22:31:47 29° 263° (W) 22:35:28 437.432
DOVE 4 05 May 22:29:08 22:32:24 20° 267° (W) 22:35:40 437.250
SEEDS 05 May 22:40:10 22:42:45 15° 267° (W) 22:45:07 437.485
DX 1 05 May 22:44:42 22:48:49 46° 75° (ENE) 22:52:59 434.975-435.025
Cosmos 2491 05 May 22:49:38 22:58:20 70° 278° (W) 23:07:06 435.465 / 435.565
VELOX 1 05 May 23:01:18 23:05:07 31° 73° (ENE) 23:09:02 145.980
YUBILEINY 05 May 23:04:45 23:12:27 35° 272° (W) 23:19:55 435.215
ESTCUBE 1 05 May 23:07:05 23:10:13 19° 72° (ENE) 23:13:29 437.505/2401.250
RS-15 05 May 23:09:52 23:21:40 90° 75° (ENE) 23:33:54 29.354- 29.394
UKube-1 05 May 23:11:07 23:15:26 85° 261° (W) 23:19:46 .
TIGRISAT 05 May 23:15:20 23:19:09 26° 95° (E) 23:23:00 435.000
POLYITAN 1 05 May 23:20:20 23:22:05 13° 92° (E) 23:24:07 437.675
AISAT 05 May 23:23:14 23:27:33 61° 76° (ENE) 23:31:55 437.250
UNISAT 6 05 May 23:24:37 23:28:49 35° 97° (E) 23:32:58 437.425
FUNcube-1 05 May 23:25:12 23:29:07 30° 264° (W) 23:33:02 145.935
JUGNU 05 May 23:26:48 23:32:00 31° 183° (S) 23:37:14 437.505
Oscar 11 05 May 23:29:49 23:32:05 13° 268° (W) 23:34:06 145.826/435.025
AIST 1 05 May 23:30:51 23:34:40 33° 92° (E) 23:38:32
QB50P1 05 May 23:31:12 23:33:59 17° 94° (E) 23:36:57 145.935-145.965
BUGSAT 1 05 May 23:43:09 23:45:39 16° 94° (E) 23:48:21 437.445
CUBEBUG 2 05 May 23:47:53 23:49:03 11° 270° (W) 23:49:53 437.445
UWE-3 05 May 23:48:36 23:50:46 13° 269° (W) 23:52:40 435.000/436.395/437.385
HUMSAT D 05 May 23:53:30 23:57:14 28° 264° (W) 00:00:57 437.325/437.525
50 SAT 05 May 23:54:05 23:57:57 46° 261° (W) 00:01:51 437.505
ZACube-1 05 May 23:57:34 23:59:40 13° 269° (W) 00:01:29 437.345
SRMSAT 05 May 23:58:02 00:03:16 31° 177° (S) 00:08:30 437.500
QB50P2 06 May 00:00:29 00:04:34 42° 99° (E) 00:08:40 145.880/145.840
ANTELSAT 06 May 00:06:50 00:11:26 68° 284° (WNW) 00:15:52 437.575/2403.000
CUBEBUG 1 06 May 00:08:48 00:13:06 85° 258° (WSW) 00:17:26 437.445
Cosmos 2504 06 May 00:09:54 00:17:16 55° 80° (E) 00:24:19 435.465 / 435.565
NANOSAT C BR1 06 May 00:10:13 00:14:26 55° 100° (E) 00:18:39 145.865
BEESAT 3 06 May 00:12:31 00:16:34 87° 295° (WNW) 00:20:41 437.485
POPSAT HIP 1 06 May 00:18:46 00:23:05 72° 101° (E) 00:27:22 437.405
DX 1 06 May 00:24:35 00:25:22 10° 268° (W) 00:25:50 434.975-435.025
BEESAT 2 06 May 00:29:00 00:33:03 68° 298° (WNW) 00:37:11 435.950
VELOX 1 06 May 00:38:54 00:41:46 16° 266° (W) 00:44:28 145.980
DUCHIFAT 1 06 May 00:40:27 00:44:42 60° 284° (WNW) 00:48:54 145.980
ESTCUBE 1 06 May 00:43:02 00:46:55 28° 263° (W) 00:50:46 437.505/2401.250
SPROUT 06 May 00:44:36 00:48:47 59° 77° (ENE) 00:53:02 437.525
TIGRISAT 06 May 00:52:15 00:55:46 21° 289° (WNW) 00:59:06 435.000
POLYITAN 1 06 May 00:54:10 00:58:12 38° 285° (WNW) 01:02:11 437.675
UNISAT 6 06 May 01:02:25 01:05:20 16° 290° (WNW) 01:07:59 437.425
AIST 2 06 May 01:02:58 01:07:11 77° 116° (ESE) 01:11:28 435.215
TISAT 1 06 May 01:05:26 01:09:36 83° 78° (ENE) 01:13:50 437.305
QB50P1 06 May 01:06:11 01:09:54 28° 287° (WNW) 01:13:32 145.935-145.965
AIST 1 06 May 01:10:21 01:12:29 13° 286° (WNW) 01:14:24
JUGNU 06 May 01:16:03 01:20:36 22° 193° (SSW) 01:25:05 437.505
BUGSAT 1 06 May 01:17:27 01:21:11 30° 286° (WNW) 01:24:53 437.445
RS-15 06 May 01:25:41 01:33:13 18° 256° (WSW) 01:39:49 29.354- 29.394
QB50P2 06 May 01:38:19 01:40:09 12° 290° (WNW) 01:41:43 145.880/145.840
